パロマー彗星

C/2019 J2 ( Palomar )

English version
Home page
Updated on August 6, 2019

---------------------------------------------------------------------

・ プロフィール

発見日 2019年5月9日
発見光度 16.8等
発見者 Quan-zhi Ye (Palomar)

・ 写真集

・ 軌道要素

Epoch 2019 July 16.0 TT = JDT 2458680.5                                         
T 2019 July 19.72744 TT                                 MPCLINUX                
q   1.7268588            (2000.0)            P               Q                  
z  +0.0016660      Peri.   98.70461     -0.02561484     -0.90940086             
 +/-0.0001782      Node    25.47105     -0.65308596     -0.29917549             
e   0.9971231      Incl.  105.13837     +0.75685045     -0.28893616             
From 156 observations 2019 Apr. 27-July 19, mean residual 0".9.                 

・ 星図

・ 光度変化

        m1 = 2.5 + 5 logΔ + 50 log r(t + 70)

        ※ 灰色の曲線は、m1 = 12.0 + 5 logΔ + 10.0 log r の光度曲線です。

---------------------------------------------------------------------

軌道要素はM.P.E.C. 2019-O96に掲載されたものです。
星図はステラナビゲータ Ver.10 (アストロアーツ) で作成したものです。
光度グラフはComet for Windowsで作成したものです。

---------------------------------------------------------------------

Copyright(C) Seiichi Yoshida (comet@aerith.net). All rights reserved.